CW5306 Weather Reports


time (UTC)temp
C
wind
direction
speed
KPH
gust
KPH
rain 1hr
cm
rain 24hr
cm
rain mn
cm
humidity
%
barometer
mb
20260906014439 25 28 11.3 24.1 0.23 0.30 0.30 89 1010.6
20260906013939 25 65 9.7 20.9 0.23 0.30 0.30 89 1010.4
20260906013444 24 86 0.0 20.9 0.23 0.30 0.30 89 1010.5
20260906012940 24 47 16.1 20.9 0.23 0.30 0.30 89 1010.5
20260906012441 24 130 4.8 20.9 0.23 0.30 0.30 88 1010.5
20260906011940 24 114 6.4 22.5 0.23 0.30 0.30 87 1010.7
20260906011440 25 99 17.7 22.5 0.18 0.25 0.25 86 1010.5
20260906010940 25 132 9.7 22.5 0.03 0.10 0.13 84 1010.7
20260906010440 25 123 6.4 22.5 0.00 0.08 0.08 83 1010.3
20260906005939 25 156 4.8 20.9 0.00 0.08 0.08 81 1010.7
20260906005439 26 102 6.4 20.9 0.00 0.08 0.08 80 1010.7
20260906004940 26 144 14.5 17.7 0.00 0.08 0.08 80 1010.6
20260906004441 26 194 12.9 22.5 0.00 0.08 0.08 80 1010.5
20260906004210 26 129 9.7 22.5 0.00 0.08 0.08 80 1010.6
20260906003441 26 114 8.0 24.1 0.00 0.08 0.08 80 1011.0
20260906002940 26 110 9.7 30.6 0.00 0.08 0.08 80 1010.8
20260906002441 26 112 14.5 30.6 0.00 0.08 0.08 78 1011.1
20260906001939 26 92 19.3 32.2 0.00 0.08 0.08 78 1010.6
20260906001710 26 89 12.9 32.2 0.00 0.08 0.08 77 1010.8
20260906001210 27 107 16.1 27.4 0.00 0.08 0.08 78 1010.8
20260906000441 27 71 16.1 27.4 0.00 0.08 0.08 79 1010.8
20260905235939 27 112 19.3 30.6 0.00 0.08 0.08 79 1011.0
20260905235439 27 52 11.3 32.2 0.00 0.08 0.08 79 1011.1
20260905234940 27 124 20.9 32.2 0.00 0.08 0.08 79 1011.0
20260905234440 27 80 14.5 32.2 0.00 0.08 0.08 79 1011.0
20260905233941 27 105 16.1 32.2 0.00 0.08 0.08 79 1011.1
20260905233445 27 54 16.1 27.4 0.00 0.08 0.08 79 1011.1
20260905233439 27 64 19.3 32.2 0.00 0.08 0.08 77 1011.2
20260905232439 27 85 14.5 33.8 0.00 0.08 0.08 79 1011.2
20260905231940 26 98 8.0 33.8 0.03 0.08 0.08 79 1011.3
20260905231441 26 89 14.5 37.0 0.03 0.08 0.08 80 1011.4
20260905230941 26 70 12.9 37.0 0.03 0.08 0.08 79 1011.4
20260905230439 26 106 17.7 30.6 0.03 0.08 0.08 79 1011.3
20260905230210 26 31 14.5 27.4 0.05 0.08 0.08 80 1011.5
20260905225439 26 93 12.9 27.4 0.05 0.08 0.08 81 1011.6
20260905225210 26 109 14.5 30.6 0.05 0.08 0.08 82 1011.6
20260905224440 26 47 11.3 30.6 0.05 0.08 0.08 82 1011.5
20260905223942 26 69 14.5 24.1 0.05 0.08 0.08 85 1011.4
20260905223447 25 54 9.7 24.1 0.05 0.08 0.08 86 1011.8
20260905223441 26 50 14.5 22.5 0.05 0.08 0.08 88 1011.6
20260905222710 25 75 9.7 30.6 0.05 0.08 0.08 87 1011.9
20260905221940 25 88 14.5 33.8 0.05 0.05 0.05 86 1011.8
20260905221439 25 57 8.0 37.0 0.05 0.05 0.05 86 1012.1
20260905220940 26 75 17.7 37.0 0.05 0.05 0.05 85 1012.0
20260905220440 26 69 6.4 25.7 0.03 0.05 0.05 83 1012.0
20260905220210 27 90 16.1 27.4 0.00 0.03 0.03 81 1012.2
20260905215440 27 45 14.5 30.6 0.00 0.03 0.03 80 1012.1
20260905214939 27 103 20.9 30.6 0.00 0.03 0.03 78 1012.1
20260905214711 27 63 12.9 33.8 0.00 0.03 0.03 78 1012.1
20260905213939 27 39 14.5 33.8 0.00 0.03 0.03 77 1012.3
20260905213441 27 80 14.5 27.4 0.00 0.03 0.03 79 1012.1
20260905212945 27 88 8.0 30.6 0.00 0.03 0.03 78 1012.2
20260905212439 27 30 17.7 30.6 0.00 0.03 0.03 77 1012.3
20260905212211 27 101 9.7 27.4 0.00 0.03 0.03 77 1012.5
20260905211439 28 85 9.7 27.4 0.00 0.03 0.03 75 1012.3
20260905210940 28 106 12.9 27.4 0.00 0.03 0.03 76 1012.6
20260905210440 27 66 14.5 33.8 0.00 0.03 0.03 75 1012.3
20260905205941 27 56 17.7 33.8 0.00 0.03 0.03 77 1012.4
20260905205439 27 117 17.7 27.4 0.00 0.03 0.03 76 1012.3
20260905204940 27 53 17.7 30.6 0.00 0.03 0.03 75 1012.4
20260905204439 27 95 9.7 30.6 0.00 0.03 0.03 78 1012.3
20260905204210 27 83 11.3 27.4 0.00 0.03 0.03 77 1012.5
20260905203711 27 65 14.5 27.4 0.00 0.03 0.03 76 1012.6
20260905203210 27 136 14.5 27.4 0.00 0.03 0.03 76 1012.4
20260905202440 27 88 9.7 30.6 0.00 0.03 0.03 77 1012.4
20260905201940 27 63 11.3 30.6 0.00 0.03 0.03 77 1012.5
20260905201440 27 64 14.5 25.7 0.00 0.03 0.03 77 1012.5
20260905200940 27 84 16.1 25.7 0.00 0.03 0.03 77 1012.1
20260905200428 27 57 22.5 27.4 0.00 0.03 0.03 79 1012.5
20260905195929 26 83 14.5 27.4 0.00 0.03 0.03 81 1012.4
20260905195428 26 60 16.1 40.2 0.00 0.03 0.03 80 1012.5
20260905194928 26 63 8.0 40.2 0.00 0.03 0.03 80 1012.4
20260905194429 26 84 22.5 38.6 0.00 0.03 0.03 80 1012.4
20260905193927 26 60 20.9 33.8 0.00 0.03 0.03 80 1012.4
20260905193428 27 23 14.5 32.2 0.00 0.03 0.03 79 1012.6
20260905193148 27 58 20.9 32.2 0.00 0.03 0.03 77 1012.2
20260905192416 27 111 17.7 32.2 0.00 0.03 0.03 77 1012.3
20260905191916 26 39 11.3 37.0 0.00 0.03 0.03 77 1012.5
20260905191647 26 77 19.3 37.0 0.00 0.03 0.03 77 1012.2
20260905190916 26 87 9.7 33.8 0.00 0.03 0.03 78 1012.3
20260905190415 26 39 17.7 33.8 0.00 0.03 0.03 78 1012.3
20260905185903 26 64 12.9 33.8 0.00 0.03 0.03 78 1012.1
20260905185404 26 87 20.9 33.8 0.00 0.03 0.03 78 1012.0
20260905185135 26 54 19.3 33.8 0.00 0.03 0.03 78 1012.0
20260905184404 26 87 16.1 32.2 0.00 0.03 0.03 78 1011.8
20260905183904 26 89 20.9 25.7 0.00 0.03 0.03 80 1011.9
20260905183404 26 102 11.3 20.9 0.00 0.03 0.03 79 1011.8
20260905182903 26 127 11.3 25.7 0.00 0.03 0.03 78 1012.0
20260905182352 26 53 9.7 30.6 0.00 0.03 0.03 78 1011.8
20260905181853 26 97 14.5 30.6 0.00 0.03 0.03 77 1011.8
20260905181339 26 26 9.7 27.4 0.00 0.03 0.03 78 1011.8
20260905181110 26 122 12.9 25.7 0.00 0.03 0.03 77 1011.8
20260905180340 26 105 12.9 25.7 0.00 0.03 0.03 78 1011.7
20260905180111 26 84 6.4 25.7 0.00 0.03 0.03 78 1011.7
20260905175340 26 92 6.4 24.1 0.00 0.03 0.03 80 1011.5
20260905175110 26 82 12.9 25.7 0.00 0.03 0.03 80 1011.8
20260905174340 25 107 11.3 25.7 0.00 0.03 0.03 82 1011.5
20260905174110 25 139 11.3 24.1 0.00 0.03 0.03 81 1011.6
20260905173340 25 69 17.7 32.2 0.00 0.03 0.03 81 1011.4
20260905172842 25 79 14.5 32.2 0.00 0.03 0.03 82 1011.4
20260905172340 25 58 17.7 25.7 0.00 0.03 0.03 81 1011.2
20260905171840 25 66 12.9 25.7 0.00 0.03 0.03 81 1011.5
20260905171345 25 90 12.9 25.7 0.00 0.03 0.03 80 1011.4
20260905171340 25 100 12.9 24.1 0.00 0.03 0.03 81 1011.2
20260905170610 25 74 14.5 25.7 0.00 0.03 0.03 79 1011.5
20260905165839 25 114 6.4 27.4 0.00 0.03 0.03 78 1011.3
20260905165340 25 127 14.5 27.4 0.00 0.03 0.03 80 1011.3
20260905164839 25 70 16.1 25.7 0.00 0.03 0.03 81 1011.1
20260905164625 25 80 11.3 25.7 0.00 0.03 0.03 81 1011.1
20260905164111 25 113 12.9 25.7 0.00 0.03 0.03 82 1011.0
20260905163339 25 81 9.7 33.8 0.00 0.03 0.03 81 1011.0
20260905162839 25 91 16.1 33.8 0.00 0.03 0.03 81 1011.0
20260905162340 25 66 14.5 27.4 0.00 0.03 0.03 80 1011.0
20260905161840 25 105 8.0 24.1 0.00 0.03 0.03 81 1011.0
20260905161340 24 81 12.9 24.1 0.00 0.03 0.03 81 1010.9
20260905160840 24 89 6.4 25.7 0.00 0.03 0.03 82 1011.1
20260905160339 24 116 17.7 25.7 0.00 0.03 0.03 83 1010.8
20260905155840 24 86 16.1 22.5 0.00 0.03 0.03 83 1010.9
20260905155340 24 56 4.8 22.5 0.00 0.03 0.03 83 1011.0
20260905154840 24 93 3.2 22.5 0.00 0.03 0.03 83 1011.2
20260905154339 24 132 8.0 24.1 0.00 0.05 0.03 83 1010.9
20260905154111 24 102 4.8 24.1 0.00 0.05 0.03 83 1011.0
20260905153341 25 98 14.5 22.5 0.00 0.05 0.03 82 1011.1
20260905152839 25 100 14.5 22.5 0.00 0.05 0.03 83 1011.3
20260905152341 25 83 11.3 20.9 0.00 0.05 0.03 82 1011.2
20260905151840 25 108 9.7 22.5 0.00 0.05 0.03 82 1011.2
20260905151611 24 32 14.5 22.5 0.00 0.05 0.03 81 1010.7
20260905150842 24 110 8.0 24.1 0.00 0.05 0.03 81 1010.9
20260905150611 24 85 9.7 24.1 0.00 0.05 0.03 81 1011.0
20260905150117 24 115 6.4 25.7 0.00 0.05 0.03 82 1011.0
20260905145840 24 105 9.7 25.7 0.00 0.05 0.03 81 1011.0
20260905144839 24 49 17.7 25.7 0.00 0.05 0.03 82 1011.1
20260905144340 24 94 19.3 30.6 0.03 0.05 0.03 82 1010.9
20260905143841 24 74 17.7 30.6 0.03 0.05 0.03 82 1010.9
20260905143340 24 108 9.7 27.4 0.03 0.05 0.03 82 1010.9
20260905142845 24 58 19.3 32.2 0.03 0.05 0.03 81 1011.2
20260905142839 24 122 9.7 32.2 0.03 0.05 0.03 82 1011.0
20260905141840 24 78 17.7 30.6 0.03 0.05 0.03 81 1011.0
20260905141611 24 67 6.4 32.2 0.03 0.05 0.03 82 1011.1
20260905140840 24 102 11.3 32.2 0.03 0.05 0.03 81 1011.0
20260905140340 24 102 12.9 32.2 0.03 0.05 0.03 81 1010.9
20260905140110 24 94 11.3 25.7 0.03 0.05 0.03 82 1011.1
20260905135610 24 84 14.5 25.7 0.03 0.05 0.03 83 1010.9
20260905134841 24 95 9.7 30.6 0.03 0.05 0.03 86 1011.0
20260905134340 24 91 16.1 33.8 0.00 0.05 0.00 84 1011.1
20260905134111 24 59 9.7 33.8 0.00 0.05 0.00 84 1011.2
20260905133341 24 72 6.4 27.4 0.00 0.05 0.00 84 1011.3
20260905132840 24 58 9.7 30.6 0.00 0.05 0.00 84 1011.3
20260905132339 24 68 12.9 32.2 0.00 0.05 0.00 84 1011.2
20260905132111 24 43 12.9 32.2 0.00 0.05 0.00 84 1011.1
20260905131340 24 64 11.3 27.4 0.00 0.05 0.00 85 1011.3
20260905130839 24 69 14.5 32.2 0.00 0.05 0.00 85 1011.4
20260905130327 24 55 9.7 32.2 0.00 0.05 0.00 83 1011.3
20260905125827 25 62 14.5 32.2 0.00 0.05 0.00 83 1011.4
20260905125559 25 91 17.7 30.6 0.00 0.05 0.00 81 1011.3
20260905125434 25 60 14.5 32.2 0.00 0.05 0.00 82 1011.2
20260905124558 25 67 16.1 32.2 0.00 0.05 0.00 81 1011.4
20260905123829 25 85 12.9 32.2 0.00 0.05 0.00 81 1011.4
20260905123327 25 40 16.1 32.2 0.00 0.05 0.00 80 1011.2
20260905122828 25 73 12.9 32.2 0.00 0.05 0.00 81 1011.3
20260905122328 25 63 16.1 32.2 0.00 0.05 0.00 81 1011.5
20260905122058 25 96 14.5 32.2 0.00 0.05 0.00 81 1011.3
20260905121604 25 61 8.0 33.8 0.00 0.05 0.00 80 1011.5
20260905121327 25 45 14.5 32.2 0.00 0.05 0.00 80 1011.5
20260905120315 25 54 19.3 30.6 0.00 0.08 0.00 79 1011.8
20260905115815 25 139 22.5 30.6 0.00 0.08 0.00 78 1011.8
20260905115306 25 100 9.7 27.4 0.00 0.08 0.00 79 1011.9
20260905114803 25 100 12.9 27.4 0.00 0.08 0.00 79 1012.0
20260905114303 25 66 4.8 32.2 0.00 0.08 0.00 78 1011.9
20260905113804 25 84 17.7 32.2 0.00 0.08 0.00 79 1012.2
20260905113304 25 52 6.4 30.6 0.00 0.08 0.00 81 1012.1
20260905112804 25 33 16.1 32.2 0.00 0.08 0.00 80 1012.2
20260905112535 25 91 8.0 32.2 0.00 0.08 0.00 80 1011.9
20260905112254 25 72 12.9 32.2 0.00 0.08 0.00 79 1012.1
20260905111253 25 101 20.9 32.2 0.00 0.08 0.00 79 1012.3
20260905110739 25 74 12.9 33.8 0.00 0.08 0.00 80 1012.0
20260905110240 25 71 14.5 37.0 0.00 0.08 0.00 79 1012.3
20260905105740 25 80 12.9 37.0 0.00 0.08 0.00 78 1012.3
20260905105240 25 98 16.1 32.2 0.00 0.08 0.00 78 1012.2
20260905104739 25 145 14.5 46.7 0.00 0.08 0.00 78 1012.4
20260905104241 25 72 20.9 46.7 0.00 0.08 0.00 77 1012.2
20260905103739 25 112 16.1 27.4 0.00 0.08 0.00 78 1012.6
20260905103242 25 91 20.9 32.2 0.00 0.08 0.00 79 1012.6
20260905102741 25 49 14.5 32.2 0.00 0.08 0.00 79 1012.5
20260905102240 25 73 20.9 25.7 0.00 0.08 0.00 79 1012.5
20260905101739 25 95 12.9 27.4 0.00 0.08 0.00 79 1012.5
20260905101239 25 109 17.7 30.6 0.00 0.08 0.00 79 1012.4
20260905100739 25 62 16.1 30.6 0.00 0.08 0.00 78 1012.7
20260905100239 25 59 22.5 30.6 0.00 0.08 0.00 79 1012.8
20260905100011 25 85 20.9 37.0 0.00 0.08 0.08 80 1012.8
20260905095239 25 99 14.5 37.0 0.00 0.08 0.08 79 1012.8
20260905094740 25 77 12.9 30.6 0.00 0.08 0.08 80 1012.9
20260905094240 25 77 12.9 37.0 0.00 0.08 0.08 80 1013.1
20260905093739 25 54 14.5 37.0 0.00 0.08 0.08 80 1013.0
20260905093239 25 79 20.9 37.0 0.00 0.08 0.08 78 1013.3
20260905093010 25 81 19.3 33.8 0.00 0.08 0.08 79 1013.1
20260905092239 25 19 16.1 33.8 0.00 0.08 0.08 80 1013.2
20260905091739 25 56 24.1 30.6 0.00 0.08 0.08 79 1013.1
20260905091511 25 120 9.7 30.6 0.00 0.08 0.08 79 1013.0
20260905090740 25 106 17.7 27.4 0.00 0.08 0.08 79 1013.2
20260905090241 25 73 12.9 37.0 0.00 0.08 0.08 78 1013.4
20260905085742 25 87 17.7 37.0 0.00 0.08 0.08 78 1013.5
20260905085512 25 89 12.9 27.4 0.00 0.08 0.08 79 1013.2
20260905084740 25 87 9.7 27.4 0.00 0.08 0.08 79 1013.4
20260905084241 25 20 16.1 27.4 0.00 0.08 0.08 78 1013.4
20260905083740 25 98 17.7 27.4 0.00 0.08 0.08 78 1013.3
20260905083240 25 125 17.7 27.4 0.00 0.08 0.08 78 1013.6
20260905082741 25 97 6.4 27.4 0.00 0.08 0.08 78 1013.6
20260905082240 25 98 11.3 30.6 0.00 0.08 0.08 78 1013.6
20260905082010 25 50 16.1 33.8 0.00 0.08 0.08 77 1013.5
20260905081255 25 106 12.9 33.8 0.00 0.08 0.08 78 1013.5
20260905080740 25 98 11.3 30.6 0.00 0.10 0.08 78 1013.7
20260905080240 25 78 12.9 32.2 0.00 0.10 0.08 78 1013.7
20260905075739 25 81 12.9 32.2 0.00 0.10 0.08 78 1013.8
20260905075238 25 81 4.8 32.2 0.00 0.10 0.08 79 1013.6
20260905074734 25 89 9.7 33.8 0.00 0.18 0.08 78 1013.6
20260905074728 25 107 11.3 32.2 0.00 0.10 0.08 79 1013.5
20260905073729 25 61 12.9 33.8 0.00 0.18 0.08 78 1013.8
20260905073227 25 120 19.3 32.2 0.00 0.18 0.08 78 1013.7
20260905072728 25 92 17.7 32.2 0.00 0.18 0.08 78 1013.6
20260905072228 25 77 16.1 32.2 0.00 0.18 0.08 78 1013.5
20260905071728 25 78 11.3 32.2 0.00 0.18 0.08 78 1013.6
20260905071228 25 76 14.5 27.4 0.00 0.18 0.08 77 1013.7
20260905070728 25 87 9.7 27.4 0.00 0.18 0.08 78 1013.5
20260905070227 25 82 8.0 27.4 0.00 0.18 0.08 78 1013.5
20260905065727 25 122 11.3 27.4 0.00 0.18 0.08 78 1013.5
20260905065458 25 59 9.7 24.1 0.00 0.18 0.08 78 1013.4
20260905064728 25 56 12.9 25.7 0.00 0.18 0.08 78 1013.4
20260905064228 25 85 19.3 37.0 0.00 0.18 0.08 78 1013.2
20260905063728 25 64 14.5 37.0 0.00 0.18 0.08 77 1013.1
20260905063501 25 111 12.9 27.4 0.00 0.18 0.08 77 1013.0
20260905062729 25 74 16.1 32.2 0.00 0.18 0.08 77 1013.1
20260905062227 25 75 11.3 33.8 0.00 0.18 0.08 77 1013.2
20260905061728 25 55 9.7 33.8 0.00 0.18 0.08 76 1012.9
20260905061228 25 85 8.0 30.6 0.00 0.18 0.08 76 1013.0
20260905060727 25 97 14.5 30.6 0.00 0.18 0.08 76 1012.9
20260905060227 25 62 17.7 27.4 0.00 0.18 0.08 76 1012.9
20260905055729 25 86 17.7 30.6 0.00 0.18 0.08 75 1013.0
20260905055228 25 82 16.1 30.6 0.00 0.18 0.08 74 1013.0
20260905054728 25 78 11.3 27.4 0.00 0.18 0.08 74 1012.7
20260905054458 25 81 6.4 27.4 0.00 0.18 0.08 74 1012.7
20260905053727 25 59 9.7 30.6 0.00 0.18 0.08 74 1012.8
20260905053228 25 98 17.7 30.6 0.00 0.18 0.08 74 1012.9
20260905052728 25 59 14.5 24.1 0.00 0.18 0.08 75 1012.7
20260905052500 25 119 14.5 32.2 0.00 0.18 0.08 75 1012.5
20260905051729 25 104 17.7 32.2 0.00 0.18 0.08 75 1012.4
20260905051227 25 85 17.7 30.6 0.00 0.18 0.08 75 1012.2
20260905050728 25 127 16.1 30.6 0.00 0.18 0.08 73 1012.6
20260905050227 25 97 9.7 30.6 0.00 0.18 0.08 71 1012.4
20260905045728 25 92 3.2 33.8 0.00 0.18 0.08 71 1012.3
20260905045229 25 82 6.4 27.4 0.00 0.18 0.08 70 1012.3
20260905044727 25 106 14.5 32.2 0.00 0.18 0.08 72 1012.3
20260905044227 25 73 12.9 32.2 0.00 0.18 0.08 71 1012.1
20260905043728 25 57 14.5 30.6 0.00 0.18 0.08 72 1012.0
20260905043228 25 68 8.0 25.7 0.00 0.18 0.08 71 1012.0
20260905042728 25 93 0.0 32.2 0.00 0.18 0.08 69 1012.0
20260905042228 25 109 3.2 32.2 0.00 0.18 0.08 70 1011.8
20260905041727 26 91 14.5 25.7 0.00 0.18 0.08 71 1012.0
20260905041458 26 78 12.9 25.7 0.00 0.18 0.08 71 1011.7
20260905041334 26 113 12.9 25.7 0.00 0.18 0.08 71 1011.9
20260905040459 26 65 9.7 30.6 0.00 0.18 0.08 71 1011.7
20260905035729 26 110 0.0 30.6 0.00 0.18 0.08 71 1011.6
20260905035228 26 112 9.7 30.6 0.00 0.18 0.08 70 1011.7
20260905034728 26 102 0.0 25.7 0.00 0.18 0.08 69 1011.7
20260905034228 26 111 9.7 24.1 0.00 0.18 0.08 69 1011.6
20260905034004 26 85 0.0 32.2 0.00 0.18 0.08 70 1011.9
20260905033228 26 105 11.3 32.2 0.00 0.18 0.08 69 1011.5
20260905032729 26 89 14.5 32.2 0.00 0.18 0.08 69 1011.6
20260905032458 26 110 17.7 32.2 0.00 0.18 0.08 69 1011.5
20260905031728 26 93 9.7 27.4 0.00 0.18 0.08 66 1011.6
20260905031229 26 90 6.4 27.4 0.00 0.18 0.08 70 1011.7
20260905030729 26 68 4.8 24.1 0.00 0.18 0.08 68 1011.8
20260905030228 26 78 3.2 27.4 0.00 0.18 0.08 68 1011.6
20260905025729 26 64 1.6 27.4 0.00 0.18 0.08 67 1011.8
20260905025458 26 61 19.3 37.0 0.00 0.18 0.08 68 1011.6
20260905024728 27 66 3.2 37.0 0.00 0.18 0.08 67 1011.7
20260905024228 27 86 12.9 27.4 0.00 0.18 0.08 67 1011.8
20260905023727 27 104 17.7 30.6 0.00 0.18 0.08 66 1011.5
20260905023229 27 37 9.7 32.2 0.00 0.18 0.08 65 1011.6
20260905022727 27 112 20.9 32.2 0.00 0.18 0.08 67 1011.6
20260905022227 27 72 12.9 30.6 0.00 0.18 0.08 67 1011.7
20260905021727 27 127 20.9 27.4 0.00 0.18 0.08 67 1011.6
20260905021227 27 120 20.9 33.8 0.00 0.18 0.08 67 1011.6
20260905020959 27 150 17.7 33.8 0.00 0.18 0.08 67 1011.7
20260905020228 27 64 14.5 27.4 0.00 0.18 0.08 66 1011.6
20260905015728 27 83 16.1 24.1 0.00 0.18 0.08 68 1011.6
20260905015227 27 96 17.7 27.4 0.00 0.18 0.08 66 1011.3